Tracking 28792 objects as of 25-Apr-2024
HD Live streaming from Space Station
objects crossing your sky now

NAVSTAR 77 (USA 289)

Track NAVSTAR 77 (USA 289) now!
NAVSTAR 77 (USA 289) is classified as:


NORAD ID: 43873
Int'l Code: 2018-109A
Perigee: 20,114.1 km
Apogee: 20,266.4 km
Inclination: 55.3 °
Period: 718.0 minutes
Semi major axis: 26561 km
RCS: Unknown
Launch date: December 23, 2018
Source: United States (US)
Launch site: AIR FORCE EASTERN TEST RANGE (AFETR)
PRN: 4
Your satellite tracking list
Your tracking list is empty




NASA's NSSDC Master Catalog

Two Line Element Set (TLE):
1 43873U 18109A   24115.34908104  .00000069  00000-0  00000-0 0  9991
2 43873  55.2760 123.1543 0028661 195.8669 241.3232  2.00553676 39359
Source of the keplerian elements: AFSPC